CW2597 Weather Reports


time (UTC)temp
F
wind
direction
speed
knots
gust
knots
rain 1hr
in
rain 24hr
in
rain mn
in
humidity
%
barometer
mb
20260506204705 48 350 0.0 0.0 0.00 0.78 0.78 91 1010.2
20260506204512 48 350 0.0 0.0 0.00 0.78 0.78 91 1009.1
20260506204206 48 350 0.0 0.0 0.00 0.78 0.78 91 1010.2
20260506203705 48 350 0.0 0.0 0.00 0.78 0.78 91 1010.2
20260506203512 48 350 0.0 0.0 0.00 0.78 0.78 91 1009.1
20260506202705 48 350 0.0 0.0 0.00 0.78 0.78 90 1010.2
20260506202512 48 350 0.0 0.0 0.00 0.78 0.78 90 1009.0
20260506202204 48 350 0.0 0.0 0.00 0.78 0.78 90 1010.1
20260506201705 48 350 0.0 0.0 0.00 0.78 0.78 90 1010.1
20260506201205 48 350 0.0 0.0 0.00 0.78 0.78 90 1010.1
20260506200705 48 350 0.0 0.0 0.00 0.78 0.78 90 1010.1
20260506200511 48 350 0.0 0.0 0.00 0.78 0.78 90 1008.8
20260506200205 48 350 0.0 0.0 0.00 0.78 0.78 90 1010.1
20260506195205 48 350 0.0 0.0 0.00 0.78 0.78 90 1010.0
20260506194511 49 350 0.0 0.0 0.00 0.78 0.78 90 1008.8
20260506193705 49 350 0.0 0.0 0.00 0.78 0.78 90 1010.0
20260506192705 49 350 0.0 0.0 0.00 0.78 0.78 90 1009.9
20260506192511 49 350 0.0 0.0 0.00 0.78 0.78 90 1008.6
20260506192205 49 340 0.0 0.0 0.00 0.78 0.78 90 1009.8
20260506191705 49 318 0.0 0.0 0.00 0.78 0.78 90 1009.8
20260506191511 49 317 0.0 0.0 0.00 0.78 0.78 90 1008.6
20260506191205 49 340 0.0 0.0 0.00 0.78 0.78 90 1009.7
20260506190205 49 305 0.0 0.0 0.00 0.78 0.78 90 1009.6
20260506185705 49 321 0.0 0.0 0.00 0.78 0.78 89 1009.6
20260506185512 49 321 0.0 0.0 0.00 0.78 0.78 89 1008.4
20260506185205 49 291 0.0 0.0 0.00 0.78 0.78 89 1009.5
20260506184705 49 15 0.0 0.0 0.00 0.78 0.78 89 1009.4
20260506184204 49 15 0.0 0.0 0.00 0.78 0.78 89 1009.4
20260506183705 49 354 0.0 0.0 0.00 0.78 0.78 89 1009.4
20260506183511 49 354 0.0 0.0 0.00 0.78 0.78 89 1008.3
20260506183205 49 0 0.0 0.0 0.00 0.78 0.78 89 1009.3
20260506182704 49 340 0.0 0.0 0.00 0.78 0.78 89 1009.2
20260506182512 49 340 0.0 0.0 0.00 0.78 0.78 89 1008.0
20260506181704 49 0 0.0 0.0 0.00 0.78 0.78 89 1009.1
20260506181512 49 22 0.0 0.0 0.00 0.78 0.78 89 1007.9
20260506181204 49 9 0.0 0.0 0.00 0.78 0.78 89 1009.1
20260506180705 49 31 0.0 0.0 0.00 0.78 0.78 89 1009.1
20260506180512 49 6 0.0 0.0 0.00 0.78 0.78 89 1007.9
20260506180205 49 358 0.0 1.7 0.00 0.78 0.78 89 1009.1
20260506175705 50 323 0.0 2.6 0.00 0.78 0.78 89 1009.0
20260506175205 50 318 0.9 2.6 0.00 0.78 0.78 90 1009.0
20260506174705 50 315 0.0 1.7 0.00 0.78 0.78 89 1008.9
20260506174511 49 11 0.0 1.7 0.00 0.78 0.78 89 1007.8
20260506174205 50 5 0.0 7.0 0.00 0.78 0.78 89 1008.9
20260506173705 50 1 0.0 2.6 0.01 0.78 0.78 89 1008.9
20260506173511 50 83 0.0 0.0 0.01 0.78 0.78 90 1007.7
20260506173205 50 5 0.0 0.0 0.01 0.78 0.78 90 1008.8
20260506172205 49 355 0.0 0.0 0.01 0.78 0.78 90 1008.7
20260506171511 49 350 0.0 0.0 0.01 0.78 0.78 89 1007.6
20260506170705 49 20 0.0 1.7 0.01 0.78 0.78 89 1008.7
20260506170511 49 19 0.0 4.3 0.01 0.78 0.78 89 1007.6
20260506170205 49 106 0.9 4.3 0.01 0.78 0.78 90 1008.7
20260506165705 49 34 0.9 2.6 0.01 0.78 0.78 90 1008.7
20260506165511 49 25 0.9 2.6 0.01 0.78 0.78 90 1007.6
20260506164705 49 354 0.0 0.0 0.02 0.78 0.78 90 1008.7
20260506164512 49 62 0.0 0.0 0.02 0.78 0.78 90 1007.6
20260506164205 49 20 0.0 0.0 0.02 0.78 0.78 90 1008.7
20260506163704 49 4 0.0 4.3 0.01 0.77 0.77 90 1008.7
20260506163512 49 4 0.9 4.3 0.01 0.77 0.77 90 1007.6
20260506163205 49 306 0.9 2.6 0.01 0.77 0.77 90 1008.7
20260506162705 49 10 0.0 1.7 0.01 0.77 0.77 90 1008.6
20260506162511 49 57 0.0 3.5 0.01 0.77 0.77 90 1007.5
20260506162205 49 355 0.9 2.6 0.01 0.77 0.77 91 1008.7
20260506161705 49 302 0.0 0.0 0.02 0.77 0.77 91 1008.7
20260506161511 49 19 0.0 0.0 0.02 0.77 0.77 91 1007.6
20260506160704 49 8 0.0 0.0 0.02 0.77 0.77 91 1008.7
20260506160511 49 340 0.0 0.0 0.02 0.77 0.77 91 1007.5
20260506155705 49 358 0.0 0.9 0.02 0.77 0.77 91 1008.7
20260506155511 49 13 0.0 0.9 0.02 0.77 0.77 91 1007.5
20260506155205 49 6 0.0 4.3 0.02 0.77 0.77 91 1008.6
20260506154705 49 12 0.0 0.0 0.02 0.76 0.76 91 1008.7
20260506154511 49 356 0.0 0.0 0.02 0.76 0.76 91 1007.5
20260506154205 49 326 0.0 0.0 0.02 0.76 0.76 91 1008.7
20260506153511 49 354 0.0 0.0 0.02 0.76 0.76 91 1007.6
20260506153205 49 350 0.0 0.0 0.02 0.76 0.76 91 1008.8
20260506152511 49 26 0.0 0.0 0.02 0.76 0.76 91 1007.7
20260506151705 48 352 0.0 0.0 0.02 0.76 0.76 90 1008.8
20260506151511 48 350 0.0 1.7 0.02 0.76 0.76 90 1007.7
20260506151205 48 24 0.0 1.7 0.02 0.76 0.76 90 1008.8
20260506150511 48 67 0.9 4.3 0.02 0.76 0.76 90 1007.7
20260506150205 48 99 0.9 2.6 0.02 0.76 0.76 89 1008.9
20260506145705 48 335 0.9 5.2 0.03 0.76 0.76 89 1008.7
20260506145511 48 94 0.9 3.5 0.03 0.76 0.76 89 1007.7
20260506145205 48 15 0.9 6.1 0.02 0.75 0.75 89 1008.8
20260506144511 48 20 0.0 2.6 0.03 0.75 0.75 89 1007.6
20260506144205 48 20 0.9 2.6 0.03 0.75 0.75 89 1008.7
20260506143511 48 13 0.0 0.0 0.03 0.74 0.74 90 1007.6
20260506143204 48 0 0.0 0.0 0.03 0.74 0.74 90 1008.7
20260506142511 48 34 0.0 2.6 0.04 0.74 0.74 90 1007.6
20260506142205 48 15 0.9 7.0 0.05 0.74 0.74 90 1008.7
20260506141704 48 22 0.0 8.7 0.06 0.74 0.74 91 1008.7
20260506141511 48 61 0.9 8.7 0.05 0.73 0.73 91 1007.5
20260506141204 48 12 0.9 7.0 0.06 0.73 0.73 91 1008.7
20260506140704 48 36 0.0 0.0 0.06 0.73 0.73 91 1008.7
20260506140511 48 340 0.0 0.0 0.06 0.73 0.73 91 1007.4
20260506140204 48 321 0.0 2.6 0.06 0.73 0.73 91 1008.6
20260506135704 48 312 0.0 2.6 0.06 0.72 0.72 91 1008.6
20260506135511 48 310 0.0 1.7 0.06 0.72 0.72 91 1007.4
20260506134704 48 54 0.9 4.3 0.07 0.72 0.72 91 1008.4
20260506134511 48 345 0.9 4.3 0.06 0.72 0.72 91 1007.3
20260506134204 48 6 0.9 5.2 0.07 0.72 0.72 91 1008.5
20260506133511 48 44 0.0 0.0 0.06 0.71 0.71 91 1007.3
20260506132704 48 0 1.7 8.7 0.06 0.70 0.70 91 1008.5
20260506132511 49 2 1.7 8.7 0.07 0.70 0.70 91 1007.3
20260506132204 49 354 0.9 4.3 0.06 0.69 0.69 91 1008.4
20260506130704 49 260 0.0 1.7 0.06 0.68 0.68 92 1008.4
20260506130511 49 3 0.0 1.7 0.06 0.67 0.67 92 1007.2
20260506130204 49 340 0.0 0.9 0.06 0.67 0.67 92 1008.3
20260506125704 49 333 0.0 0.9 0.06 0.66 0.66 92 1008.3
20260506125204 49 311 0.0 0.0 0.06 0.66 0.66 91 1008.2
20260506124704 49 15 0.9 5.2 0.06 0.65 0.65 91 1008.3
20260506124511 49 38 0.9 5.2 0.06 0.65 0.65 91 1007.1
20260506124204 49 31 1.7 4.3 0.06 0.65 0.65 91 1008.2
20260506123704 49 6 0.9 2.6 0.06 0.65 0.65 91 1008.2
20260506123511 49 44 0.9 2.6 0.06 0.65 0.65 91 1007.1
20260506123204 49 7 0.0 0.0 0.06 0.64 0.64 92 1008.2
20260506122704 49 2 0.0 0.0 0.07 0.64 0.64 92 1008.2
20260506122511 49 350 0.0 0.0 0.06 0.63 0.63 92 1007.0
20260506122204 49 299 0.0 0.0 0.07 0.63 0.63 92 1008.1
20260506121705 49 2 0.0 0.0 0.08 0.63 0.63 92 1008.2
20260506121511 49 3 0.0 0.0 0.07 0.62 0.62 92 1007.1
20260506120704 49 2 0.0 0.0 0.09 0.61 0.61 92 1008.2
20260506120511 49 12 0.0 0.0 0.09 0.61 0.61 92 1007.1
20260506120204 49 352 0.0 0.0 0.09 0.61 0.61 92 1008.1
20260506115704 49 358 0.0 1.7 0.09 0.61 0.61 92 1008.1
20260506115511 49 358 0.0 1.7 0.09 0.61 0.61 92 1007.0
20260506115204 49 35 0.9 2.6 0.09 0.60 0.60 91 1008.1
20260506113704 48 5 0.0 1.7 0.10 0.58 0.58 92 1008.0
20260506113204 48 352 0.9 4.3 0.10 0.57 0.57 92 1008.0
20260506112512 48 40 0.0 1.7 0.10 0.57 0.57 92 1006.8
20260506112205 48 10 0.0 5.2 0.10 0.56 0.56 92 1008.0
20260506111704 48 340 0.0 4.3 0.10 0.55 0.55 91 1008.0
20260506111204 48 8 1.7 4.3 0.10 0.54 0.54 92 1007.9
20260506110705 48 357 0.0 0.0 0.09 0.53 0.53 92 1007.9
20260506110513 48 269 0.0 0.9 0.09 0.53 0.53 92 1006.6
20260506110204 48 350 0.0 2.6 0.09 0.52 0.52 92 1007.8
20260506105704 48 20 0.0 0.0 0.09 0.51 0.51 92 1007.9
20260506105512 48 11 0.0 0.0 0.09 0.51 0.51 92 1006.7
20260506104705 48 13 0.0 0.9 0.07 0.50 0.50 92 1007.8
20260506104512 48 28 0.0 0.9 0.07 0.50 0.50 92 1006.7
20260506104204 48 3 0.0 0.0 0.07 0.49 0.49 92 1007.8
20260506103704 48 20 0.0 0.0 0.06 0.48 0.48 92 1007.8
20260506103512 48 17 0.0 0.0 0.06 0.48 0.48 92 1006.6
20260506103204 48 7 0.0 0.0 0.06 0.47 0.47 92 1007.8
20260506102705 48 6 0.0 0.0 0.06 0.46 0.46 92 1007.8
20260506102512 48 40 0.0 0.0 0.06 0.46 0.46 92 1006.6
20260506102205 48 78 0.0 0.0 0.05 0.46 0.46 92 1007.8
20260506101512 48 40 0.0 0.9 0.04 0.45 0.45 92 1006.5
20260506101204 47 59 0.0 4.3 0.03 0.44 0.44 92 1007.6
20260506095512 47 13 0.0 0.9 0.02 0.43 0.43 92 1006.3
20260506095204 48 345 0.0 0.0 0.02 0.43 0.43 92 1007.5
20260506094705 48 288 0.0 0.0 0.02 0.43 0.43 92 1007.5
20260506094204 48 343 0.0 0.0 0.02 0.42 0.42 93 1007.4
20260506093704 48 318 0.0 4.3 0.02 0.42 0.42 92 1007.3
20260506093512 48 289 0.0 4.3 0.02 0.42 0.42 92 1006.2
20260506093204 47 336 0.0 0.0 0.02 0.42 0.42 92 1007.3
20260506092704 47 338 0.0 0.0 0.02 0.41 0.41 92 1007.3
20260506092512 47 360 0.0 0.0 0.02 0.41 0.41 92 1006.2
20260506092204 47 356 0.0 0.0 0.02 0.41 0.41 92 1007.3
20260506091512 47 358 0.0 0.0 0.02 0.41 0.41 92 1006.1
20260506091204 47 349 0.0 0.9 0.02 0.41 0.41 92 1007.3
20260506090704 47 350 0.9 4.3 0.02 0.41 0.41 91 1007.4
20260506090512 47 350 0.9 3.5 0.02 0.41 0.41 91 1006.2
20260506090204 47 3 0.9 4.3 0.02 0.41 0.41 91 1007.4
20260506085704 46 353 0.0 0.0 0.02 0.41 0.41 91 1007.3
20260506085512 46 20 0.0 0.0 0.02 0.40 0.40 91 1006.2
20260506085204 46 355 0.0 0.0 0.02 0.40 0.40 91 1007.4
20260506084704 46 0 0.0 0.0 0.02 0.40 0.40 91 1007.3
20260506084512 46 345 0.0 0.0 0.02 0.40 0.40 91 1006.1
20260506084204 46 359 0.0 0.0 0.03 0.40 0.40 91 1007.4
20260506083704 46 30 0.0 0.0 0.03 0.40 0.40 91 1007.3
20260506083512 46 28 0.0 0.0 0.04 0.40 0.40 91 1006.2
20260506082704 46 4 0.0 2.6 0.03 0.39 0.39 91 1007.4
20260506082204 46 86 0.9 4.3 0.03 0.39 0.39 90 1007.4
20260506081704 46 21 0.0 0.9 0.04 0.39 0.39 91 1007.3
20260506081512 46 12 0.0 0.0 0.04 0.39 0.39 91 1006.1
20260506081204 46 37 0.0 0.0 0.03 0.39 0.39 90 1007.3
20260506080705 46 53 1.7 5.2 0.03 0.39 0.39 90 1007.3
20260506080512 46 29 0.0 0.0 0.03 0.39 0.39 90 1006.1
20260506073512 45 68 1.7 7.0 0.02 0.36 0.36 91 1006.0
20260506073204 45 47 1.7 6.1 0.02 0.37 0.36 91 1007.2
20260506072704 45 68 0.9 4.3 0.03 0.37 0.36 91 1007.2
20260506072511 45 76 0.0 0.9 0.03 0.36 0.36 91 1006.0
20260506072204 45 33 0.0 0.0 0.03 0.37 0.36 91 1007.2
20260506071704 45 33 0.0 0.0 0.02 0.36 0.35 91 1007.2
20260506071511 45 2 0.0 0.0 0.03 0.35 0.35 91 1006.0
20260506070704 45 51 0.0 0.0 0.04 0.36 0.35 91 1007.1
20260506070512 45 356 0.0 0.0 0.04 0.35 0.35 91 1005.9
20260506070204 45 38 0.0 0.0 0.04 0.36 0.35 91 1007.1
20260506062511 45 50 0.0 0.0 0.06 0.33 0.33 91 1005.7
20260506062204 45 74 0.0 2.6 0.06 0.34 0.33 91 1006.9
20260506061704 45 48 2.6 11.3 0.06 0.34 0.33 91 1006.8
20260506061511 44 69 2.6 8.7 0.06 0.32 0.32 91 1005.7
20260506061204 45 47 2.6 8.7 0.06 0.33 0.32 91 1006.8
20260506060704 45 63 2.6 7.8 0.06 0.32 0.31 91 1006.8
20260506060512 45 53 2.6 7.8 0.06 0.31 0.31 91 1005.6
20260506060204 45 53 1.7 8.7 0.06 0.32 0.31 91 1006.8
20260506051204 45 32 0.0 0.0 0.06 0.28 0.27 91 1006.8
20260506050706 45 42 0.0 0.9 0.06 0.28 0.26 91 1006.8
20260506050512 45 52 0.0 0.0 0.06 0.26 0.26 91 1005.6
20260506050206 45 40 0.0 0.0 0.06 0.28 0.26 91 1006.8
20260506044706 46 15 0.0 0.0 0.06 0.28 0.24 91 1006.8
20260506044206 46 9 0.0 0.0 0.06 0.28 0.24 91 1006.8
20260506043705 46 338 0.0 0.9 0.06 0.28 0.23 91 1006.8
20260506043511 46 306 0.0 0.9 0.06 0.23 0.23 91 1005.6
20260506043206 46 78 0.0 1.7 0.06 0.27 0.22 91 1006.8
20260506042705 46 63 0.0 0.0 0.06 0.27 0.22 91 1006.8
20260506042512 46 350 0.0 0.0 0.06 0.22 0.22 91 1005.6
20260506042205 46 27 0.0 2.6 0.06 0.26 0.21 91 1006.7
20260506041706 46 59 0.0 0.9 0.06 0.27 0.21 91 1006.7
20260506041511 47 345 0.0 0.0 0.06 0.20 0.20 91 1005.5
20260506041205 46 350 0.0 0.0 0.06 0.26 0.20 91 1006.8
20260506040705 47 54 0.0 0.0 0.06 0.26 0.20 91 1006.7
20260506040206 47 45 0.0 0.9 0.06 0.26 0.20 91 1006.7
20260506035705 47 351 0.0 0.9 0.07 0.26 0.20 90 1006.7
20260506035511 47 14 0.0 0.9 0.06 0.19 0.19 90 1005.5
20260506035205 47 41 0.0 0.0 0.07 0.25 0.19 90 1006.7
20260506034705 47 23 0.0 4.3 0.06 0.24 0.18 90 1006.7
20260506034511 47 71 0.0 4.3 0.07 0.18 0.18 90 1005.5
20260506034205 47 346 0.0 0.0 0.06 0.24 0.17 90 1006.7
20260506033706 47 18 0.0 2.6 0.07 0.24 0.17 90 1006.7
20260506033511 47 61 0.0 2.6 0.06 0.17 0.17 90 1005.6
20260506032705 48 0 0.0 0.0 0.07 0.23 0.16 90 1006.8
20260506032511 48 32 0.0 0.0 0.07 0.16 0.16 90 1005.6
20260506032206 48 53 0.0 1.7 0.07 0.24 0.16 91 1006.8
20260506031705 48 345 0.0 1.7 0.07 0.23 0.15 90 1006.8
20260506031511 48 22 0.0 2.6 0.07 0.15 0.15 90 1005.7
20260506031205 48 32 0.0 0.0 0.08 0.24 0.15 90 1006.9
20260506030706 48 17 0.0 0.0 0.07 0.23 0.14 90 1006.9
20260506030512 48 340 0.0 0.0 0.06 0.13 0.13 90 1005.7
20260506025706 48 9 0.0 0.0 0.06 0.23 0.13 90 1006.9
20260506025511 48 282 0.0 0.0 0.07 0.13 0.13 90 1005.7
20260506025205 48 53 0.0 0.0 0.06 0.22 0.12 90 1006.9
20260506024706 48 7 0.0 0.9 0.07 0.23 0.12 90 1006.9
20260506024511 48 356 0.0 0.0 0.06 0.11 0.11 90 1005.8
20260506024206 48 17 0.0 0.0 0.06 0.22 0.11 90 1006.9
20260506023705 49 338 0.0 1.7 0.06 0.22 0.10 89 1007.0
20260506023511 49 350 0.0 1.7 0.06 0.10 0.10 89 1005.9
20260506023206 49 335 0.0 0.0 0.06 0.22 0.09 90 1007.0
20260506022706 49 43 0.0 0.0 0.06 0.21 0.09 89 1006.9
20260506022511 49 2 0.0 0.0 0.06 0.09 0.09 89 1005.9
20260506022205 49 10 0.0 0.0 0.06 0.21 0.09 89 1006.9
20260506021705 49 0 0.0 7.0 0.06 0.21 0.08 89 1007.0
20260506021511 49 13 0.0 7.0 0.06 0.08 0.08 89 1006.0
20260506021205 49 2 0.0 1.7 0.06 0.20 0.07 89 1007.0
20260506020512 50 32 0.0 0.9 0.06 0.07 0.07 89 1006.0
20260506020205 50 13 0.0 0.0 0.05 0.20 0.06 89 1007.1
20260506015511 50 11 0.0 0.0 0.05 0.06 0.06 89 1006.1
20260506015206 50 355 0.0 0.0 0.05 0.20 0.06 89 1007.2
20260506014705 50 12 0.0 0.0 0.04 0.19 0.05 89 1007.2
20260506013706 51 40 0.0 0.0 0.03 0.18 0.04 88 1007.3
20260506013511 51 32 0.0 0.0 0.03 0.04 0.04 88 1006.2
20260506013205 51 10 0.0 0.9 0.03 0.18 0.03 88 1007.3
20260506012705 51 259 0.0 1.7 0.03 0.18 0.03 88 1007.3
20260506012511 51 310 0.0 0.9 0.03 0.03 0.03 88 1006.2
20260506012206 51 345 0.0 0.0 0.02 0.17 0.02 88 1007.3
20260506011705 51 9 0.0 0.0 0.02 0.17 0.02 88 1007.3
20260506011206 51 2 0.0 0.0 0.02 0.17 0.02 87 1007.4
20260506010705 51 357 0.0 0.0 0.02 0.17 0.02 87 1007.3
20260506010511 51 333 0.0 0.0 0.02 0.02 0.02 87 1006.3
20260506010206 51 328 0.0 0.0 0.02 0.17 0.02 87 1007.3
20260506005511 51 350 0.0 0.0 0.01 0.01 0.01 86 1006.4
20260506005206 52 350 0.0 0.0 0.01 0.17 0.01 85 1007.4
20260506004705 52 357 0.0 0.0 0.01 0.17 0.01 85 1007.4
20260506004511 52 356 0.0 0.0 0.01 0.01 0.01 85 1006.3
20260506004205 52 14 0.0 0.0 0.01 0.17 0.01 85 1007.4
20260506003706 52 35 0.0 0.0 0.01 0.17 0.01 85 1007.5
20260506003511 52 35 0.0 0.0 0.01 0.01 0.01 84 1006.4
20260506003205 52 13 0.0 0.0 0.00 0.16 0.00 84 1007.6
20260506002705 52 14 0.0 0.0 0.00 0.16 0.00 85 1007.6
20260506002511 52 24 0.0 0.0 0.00 0.00 0.00 85 1006.5
20260506002205 52 56 0.0 0.0 0.00 0.16 0.00 85 1007.6
20260506001706 52 325 0.0 0.0 0.00 0.16 0.00 86 1007.6
20260506001512 53 350 0.0 0.0 0.00 0.00 0.00 85 1006.6
20260506001205 53 12 0.0 0.0 0.00 0.16 0.00 85 1007.7
20260506000706 53 13 0.0 0.0 0.00 0.16 0.00 85 1007.7
20260506000511 53 13 0.0 0.0 0.00 0.00 0.00 85 1006.6
20260506000206 53 25 0.0 0.0 0.00 0.17 0.00 85 1007.7
20260505235705 53 54 0.0 0.0 0.00 0.17 0.00 85 1007.8
20260505235511 53 66 0.0 0.0 0.00 0.00 0.00 85 1006.7
20260505235205 53 55 0.0 0.0 0.00 0.17 0.00 85 1007.8
20260505234706 53 43 0.0 0.0 0.00 0.17 0.00 85 1007.9
20260505234512 53 13 0.0 0.0 0.00 0.00 0.00 85 1006.8
20260505234205 53 29 0.0 0.0 0.00 0.17 0.00 85 1007.9
20260505233706 53 314 0.0 0.0 0.00 0.18 0.00 85 1007.9
20260505233511 53 13 0.0 0.0 0.00 0.00 0.00 85 1006.9
20260505233205 53 358 0.0 0.0 0.00 0.18 0.00 85 1008.0
20260505232705 53 40 0.0 0.0 0.00 0.18 0.00 85 1008.0
20260505232511 53 252 0.0 0.0 0.00 0.00 0.00 85 1006.9
20260505232206 53 354 0.0 0.0 0.00 0.19 0.00 85 1008.0
20260505231705 53 355 0.0 0.0 0.00 0.19 0.00 85 1008.0
20260505231205 53 29 0.0 0.0 0.00 0.19 0.00 85 1008.0
20260505230706 53 9 0.0 0.0 0.00 0.20 0.00 86 1008.1
20260505230511 53 17 0.0 0.0 0.00 0.00 0.00 86 1007.0
20260505230205 53 328 0.0 0.0 0.00 0.20 0.00 86 1008.1
20260505225706 53 10 0.0 0.0 0.00 0.20 0.00 86 1008.1
20260505225511 53 16 0.0 0.0 0.00 0.00 0.00 86 1007.0
20260505225206 53 52 0.0 0.0 0.00 0.21 0.00 86 1008.2
20260505224705 53 356 0.0 0.0 0.00 0.21 0.00 86 1008.1
20260505224511 53 15 0.0 0.0 0.00 0.00 0.00 86 1007.1
20260505223705 53 13 0.0 0.0 0.00 0.22 0.00 87 1008.2
20260505223511 53 50 0.0 0.0 0.00 0.00 0.00 86 1007.2
20260505223205 53 39 0.0 0.0 0.00 0.23 0.00 87 1008.2
20260505222705 53 31 0.0 0.0 0.00 0.23 0.00 87 1008.2
20260505222205 53 358 0.0 0.0 0.00 0.24 0.00 87 1008.3
20260505221205 53 330 0.0 0.0 0.00 0.24 0.00 88 1008.3
20260505220205 53 36 0.0 0.0 0.00 0.24 0.00 88 1008.3
20260505215705 53 40 0.0 0.0 0.00 0.25 0.24 88 1008.4
20260505215511 53 40 0.0 0.0 0.00 0.24 0.24 88 1007.3
20260505215205 53 41 0.0 0.9 0.00 0.25 0.24 88 1008.5
20260505214705 53 64 0.0 0.0 0.00 0.25 0.24 88 1008.5
20260505214511 53 358 0.0 0.0 0.00 0.24 0.24 88 1007.4
20260505213705 53 39 0.0 0.0 0.00 0.28 0.24 88 1008.5
20260505213205 53 34 0.0 0.0 0.00 0.30 0.24 88 1008.5
20260505212705 53 52 0.0 0.9 0.00 0.31 0.24 89 1008.5
20260505212511 53 54 0.0 0.9 0.00 0.24 0.24 89 1007.5
20260505212206 53 60 0.0 0.0 0.00 0.31 0.24 89 1008.5
20260505211511 53 40 0.0 0.0 0.00 0.24 0.24 89 1007.4
20260505210705 53 43 0.0 0.0 0.00 0.33 0.24 90 1008.5
20260505210511 53 358 0.0 0.0 0.00 0.24 0.24 90 1007.5
20260505205705 53 7 0.0 0.0 0.00 0.33 0.24 90 1008.5
20260505205511 53 7 0.0 0.0 0.00 0.24 0.24 90 1007.4